Date String (YYYY-MM-DD hh:mm:ss) UTC,Instrument flags,Ambient pressure (hPa),Sample flow (lpm),Bypass flow (lpm),Sample temperature (°C),Ambient temperature (°C),ASC tube jacket temperature (°C),LED temperature (°C),Box temperature (°C),Sample RH (%),Span deviation,Mass concentration (μg/m³),Mass concentration (μg/m³),Mass concentration (μg/m³)
DateTimeUTC,F1_M11,P_M11,Q1_M11,Q2_M11,T1_M11,T2_M11,T3_M11,T4_M11,T5_M11,U1_M11,ZSPAN_M11,X0_M11,X2_M11,X1_M11
2023-01-18 12:00:00,,0813.6,5.01,0.00,22.3,22.9,00.0,30.9,24.3,14.8,0000.0,0003.81,0003.54,0003.53
2023-01-18 12:01:00,,0813.6,4.98,0.00,22.4,22.5,00.0,30.9,24.3,14.8,0000.0,0003.78,0003.53,0003.52
2023-01-18 12:02:00,,0813.6,5.01,0.00,22.4,22.0,00.0,31.0,24.2,14.8,0000.0,0003.72,0003.51,0003.50
2023-01-18 12:03:00,,0813.6,5.00,0.00,22.3,21.6,00.0,31.0,24.2,14.8,0000.0,0003.70,0003.49,0003.48
2023-01-18 12:04:00,,0813.6,5.02,0.00,22.3,21.3,00.0,31.0,24.1,14.8,0000.0,0003.68,0003.49,0003.48
2023-01-18 12:05:00,,0813.7,5.00,0.00,22.3,21.1,00.0,31.0,24.1,14.8,0000.0,0003.66,0003.48,0003.48
2023-01-18 12:06:00,,0814.0,4.99,0.00,22.3,20.9,00.0,31.0,24.0,14.8,0000.0,0003.63,0003.48,0003.47
2023-01-18 12:07:00,,0813.8,5.01,0.00,22.3,20.8,00.0,31.0,24.0,14.8,0000.0,0003.64,0003.48,0003.47
2023-01-18 12:08:00,,0813.9,5.00,0.00,22.3,20.7,00.0,31.0,24.0,14.9,0000.0,0003.66,0003.49,0003.48
2023-01-18 12:09:00,,0814.2,5.00,0.00,22.2,20.6,00.0,31.0,23.9,14.9,0000.0,0003.67,0003.50,0003.49
2023-01-18 12:10:00,,0814.1,4.98,0.00,22.2,20.5,00.0,31.0,23.9,14.9,0000.0,0003.68,0003.50,0003.49
2023-01-18 12:11:00,,0814.0,4.99,0.00,22.2,20.5,00.0,31.0,23.9,14.9,0000.0,0003.70,0003.52,0003.51
2023-01-18 12:12:00,,0814.0,5.01,0.00,22.2,20.4,00.0,31.0,23.9,14.9,0000.5,0003.74,0003.53,0003.53
2023-01-18 12:13:00,,0813.7,4.99,0.00,22.2,20.4,00.0,31.0,23.8,14.9,0000.0,0003.76,0003.54,0003.53
2023-01-18 12:14:00,,0813.7,5.01,0.00,22.1,20.4,00.0,31.0,23.8,15.0,0000.0,0003.79,0003.56,0003.55
2023-01-18 12:15:00,,0813.7,4.99,0.00,22.1,20.4,00.0,31.0,23.8,15.0,-000.2,0003.77,0003.56,0003.55
2023-01-18 12:16:00,,0813.6,5.01,0.00,22.1,20.3,00.0,31.0,23.8,15.0,-000.3,0003.76,0003.56,0003.55
2023-01-18 12:17:00,,0813.6,5.02,0.00,22.1,20.6,00.0,30.9,23.8,15.0,-000.3,0003.77,0003.56,0003.55
2023-01-18 12:18:00,,0813.6,5.00,0.00,22.2,21.6,00.0,30.9,24.0,14.9,0000.0,0003.76,0003.57,0003.56
2023-01-18 12:19:00,,0813.6,5.00,0.00,22.3,22.6,00.0,30.9,24.3,14.9,-001.2,0003.76,0003.57,0003.56
2023-01-18 12:20:00,,0813.6,4.99,0.00,22.4,22.8,00.0,31.0,24.4,14.8,-001.9,0003.77,0003.57,0003.56
2023-01-18 12:21:00,,0813.6,5.00,0.00,22.4,22.3,00.0,31.0,24.4,14.8,-001.1,0003.78,0003.58,0003.57
2023-01-18 12:22:00,,0813.6,5.02,0.00,22.4,21.9,00.0,31.1,24.3,14.8,0000.0,0003.74,0003.56,0003.56
2023-01-18 12:23:00,,0813.6,5.00,0.00,22.4,21.6,00.0,31.1,24.2,14.8,0000.0,0003.72,0003.56,0003.55
2023-01-18 12:24:00,,0813.6,4.99,0.00,22.4,21.3,00.0,31.1,24.1,14.8,0000.0,0003.74,0003.57,0003.56
2023-01-18 12:25:00,,0813.7,5.01,0.00,22.4,21.0,00.0,31.1,24.1,14.8,0000.0,0003.72,0003.56,0003.56
2023-01-18 12:26:00,,0813.6,5.00,0.00,22.3,20.9,00.0,31.1,24.0,14.8,0000.0,0003.74,0003.57,0003.57
2023-01-18 12:27:00,,0813.6,4.99,0.00,22.3,20.7,00.0,31.1,24.0,14.9,0000.0,0003.77,0003.59,0003.58
2023-01-18 12:28:00,,0813.6,4.99,0.00,22.3,20.6,00.0,31.1,24.0,14.9,0000.0,0003.77,0003.59,0003.58
2023-01-18 12:29:00,,0813.9,5.01,0.00,22.3,20.5,00.0,31.1,23.9,14.9,0000.0,0003.77,0003.58,0003.58
2023-01-18 12:30:00,,0814.0,5.01,0.00,22.2,20.5,00.0,31.1,23.9,14.9,0000.0,0003.77,0003.59,0003.58
2023-01-18 12:31:00,,0814.1,5.01,0.00,22.2,20.4,00.0,31.1,23.8,15.0,0000.0,0003.76,0003.59,0003.58
2023-01-18 12:32:00,,0814.1,5.00,0.00,22.2,20.4,00.0,31.0,23.8,15.0,0000.0,0003.75,0003.59,0003.58
2023-01-18 12:33:00,,0814.1,5.00,0.00,22.2,20.4,00.0,31.0,23.8,15.0,0000.0,0003.76,0003.59,0003.59
2023-01-18 12:34:00,,0814.0,4.99,0.00,22.1,20.3,00.0,31.0,23.8,15.0,0000.0,0003.77,0003.60,0003.59
2023-01-18 12:35:00,,0814.2,4.99,0.00,22.1,20.3,00.0,31.0,23.8,15.1,0000.0,0003.77,0003.59,0003.58
2023-01-18 12:36:00,,0814.0,5.00,0.00,22.1,20.2,00.0,31.0,23.7,15.1,0000.0,0003.81,0003.60,0003.59
2023-01-18 12:37:00,,0814.2,5.01,0.00,22.1,20.2,00.0,31.0,23.7,15.1,0000.0,0003.80,0003.59,0003.58
2023-01-18 12:38:00,,0814.1,5.02,0.00,22.1,21.1,00.0,30.9,23.9,15.1,0000.0,0003.77,0003.58,0003.56
2023-01-18 12:39:00,,0814.2,5.01,0.00,22.2,22.2,00.0,30.9,24.2,15.0,0000.0,0003.75,0003.56,0003.55
2023-01-18 12:40:00,,0814.2,4.99,0.00,22.3,22.8,00.0,31.0,24.3,15.0,0000.0,0003.76,0003.56,0003.54
2023-01-18 12:41:00,,0814.2,4.99,0.00,22.4,22.4,00.0,31.0,24.3,14.9,0000.0,0004.02,0003.54,0003.52
2023-01-18 12:42:00,,0814.2,5.01,0.00,22.4,21.9,00.0,31.0,24.3,14.9,0000.0,0004.03,0003.52,0003.50
2023-01-18 12:43:00,,0814.2,5.01,0.00,22.4,21.5,00.0,31.1,24.2,14.9,0000.0,0004.00,0003.50,0003.48
2023-01-18 12:44:00,,0814.2,4.99,0.00,22.4,21.2,00.0,31.1,24.1,14.9,0000.0,0003.95,0003.47,0003.45
2023-01-18 12:45:00,,0814.3,5.00,0.00,22.3,21.0,00.0,31.1,24.1,14.9,0000.0,0003.90,0003.45,0003.43
2023-01-18 12:46:00,,0814.1,5.00,0.00,22.3,20.8,00.0,31.1,24.0,15.0,0000.0,0003.83,0003.42,0003.40
2023-01-18 12:47:00,,0814.2,5.00,0.00,22.3,20.7,00.0,31.1,24.0,15.0,0000.0,0003.75,0003.39,0003.37
2023-01-18 12:48:00,,0814.1,4.99,0.00,22.3,20.6,00.0,31.1,23.9,15.0,0000.0,0003.70,0003.36,0003.34
2023-01-18 12:49:00,,0814.2,5.00,0.00,22.2,20.5,00.0,31.1,23.9,15.0,0000.0,0003.64,0003.33,0003.31
2023-01-18 12:50:00,,0814.2,4.97,0.00,22.2,20.3,00.0,31.0,23.8,15.1,0000.0,0003.61,0003.31,0003.29
2023-01-18 12:51:00,,0814.3,4.99,0.00,22.2,20.3,00.0,31.0,23.8,15.1,0000.0,0003.55,0003.29,0003.27
2023-01-18 12:52:00,,0814.3,5.01,0.00,22.1,20.2,00.0,31.0,23.7,15.1,0000.0,0003.28,0003.27,0003.25
2023-01-18 12:53:00,,0814.2,5.00,0.00,22.1,20.1,00.0,31.0,23.7,15.2,0000.0,0003.15,0003.25,0003.23
2023-01-18 12:54:00,,0814.3,5.01,0.00,22.1,20.1,00.0,31.0,23.7,15.2,0000.0,0003.12,0003.23,0003.22
2023-01-18 12:55:00,,0814.3,4.99,0.00,22.0,20.1,00.0,30.9,23.6,15.2,0000.0,0003.13,0003.23,0003.22
2023-01-18 12:56:00,,0813.8,4.99,0.00,22.0,20.4,00.0,30.9,23.7,15.2,0000.0,0003.14,0003.24,0003.22
2023-01-18 12:57:00,,0813.9,5.01,0.00,22.1,21.5,00.0,30.9,23.9,15.2,0000.0,0003.34,0003.24,0003.23
2023-01-18 12:58:00,,0813.9,5.01,0.00,22.2,22.5,00.0,30.9,24.2,15.1,0000.0,0003.48,0003.24,0003.23
2023-01-18 12:59:00,,0813.9,5.00,0.00,22.3,22.7,00.0,31.0,24.3,15.0,0000.0,0003.50,0003.25,0003.24
